Location: North Smoke Tower Site
(30.5430°N, 82.3390°W)
Time: 04:23:08
(UTC-04:00)

Cosmos 1980 Rocket - Visible Passes

Search period start: 21 April 2015 00:00
Search period end: 01 May 2015 00:00
Orbit: 828 x 851 km, 71.0° (Epoch: 20 April)

Date Brightness Start Highest point End Pass type
(mag) Time Alt. Az. Time Alt. Az. Time Alt. Az.
21 Apr 5.0 02:39:52 11° ENE 02:39:52 11° ENE 02:40:05 10° ENE visible
21 Apr 3.3 04:21:39 34° NNW 04:21:39 34° NNW 04:25:15 10° N visible
22 Apr 3.5 04:06:28 31° NNW 04:06:28 31° NNW 04:09:40 10° N visible
23 Apr 3.7 03:51:14 29° N 03:51:14 29° N 03:54:05 10° N visible
24 Apr 3.9 03:35:59 26° N 03:35:59 26° N 03:38:29 10° N visible
25 Apr 4.1 03:20:42 24° N 03:20:42 24° N 03:22:54 10° NNE visible
26 Apr 4.3 03:05:23 22° N 03:05:23 22° N 03:07:17 10° NNE visible
27 Apr 4.4 02:50:02 20° N 02:50:02 20° N 02:51:41 10° NNE visible
28 Apr 4.6 02:34:39 18° NNE 02:34:39 18° NNE 02:36:04 10° NNE visible
29 Apr 4.7 02:19:14 17° NNE 02:19:14 17° NNE 02:20:27 10° NNE visible
30 Apr 4.7 02:03:47 16° NNE 02:03:47 16° NNE 02:04:50 10° NNE visible
